Time,TemperatureF,DewpointF,PressureIn,WindDirection,WindDirectionDegrees,WindSpeedMPH,WindSpeedGustMPH,Humidity,HourlyPrecipIn,Conditions,Clouds,dailyrainin,SoftwareType,DateUTC
2013-05-06 00:00:00,63.5,29.0,30.02,North,356,0.0,0.0,27,0.00,,---,0.00,VWS V13.01,2013-05-06 04:00:00,
2013-05-06 00:01:00,63.5,29.0,30.02,North,356,0.0,0.0,27,0.00,,---,0.00,VWS V13.01,2013-05-06 04:01:00,
2013-05-06 00:02:00,63.5,29.0,30.02,North,356,0.0,0.0,27,0.00,,---,0.00,VWS V13.01,2013-05-06 04:02:00,
2013-05-06 00:07:00,63.3,28.8,30.02,North,356,0.0,0.0,27,0.00,,---,0.00,VWS V13.01,2013-05-06 04:07:00,
2013-05-06 00:12:00,63.1,28.6,30.02,North,356,0.0,0.0,27,0.00,,---,0.00,VWS V13.01,2013-05-06 04:12:00,
2013-05-06 00:17:00,63.0,28.5,29.99,North,356,0.0,0.0,27,0.00,,---,0.00,VWS V13.01,2013-05-06 04:17:00,
2013-05-06 00:22:00,62.8,28.3,29.99,North,356,0.0,0.0,27,0.00,,---,0.00,VWS V13.01,2013-05-06 04:22:00,
2013-05-06 00:27:00,62.6,28.2,29.99,North,356,0.0,0.0,27,0.00,,---,0.00,VWS V13.01,2013-05-06 04:27:00,
2013-05-06 00:32:00,62.4,28.0,29.99,North,356,4.0,4.0,27,0.00,,---,0.00,VWS V13.01,2013-05-06 04:32:00,
2013-05-06 00:37:00,62.6,28.2,29.99,North,356,3.1,3.6,27,0.00,,---,0.00,VWS V13.01,2013-05-06 04:37:00,
2013-05-06 00:42:00,62.8,28.3,29.99,North,356,2.7,3.1,27,0.00,,---,0.00,VWS V13.01,2013-05-06 04:42:00,
2013-05-06 00:47:00,62.8,29.2,29.99,North,356,3.1,3.6,28,0.00,,---,0.00,VWS V13.01,2013-05-06 04:47:00,
2013-05-06 00:52:00,62.6,29.1,29.99,North,356,2.7,3.1,28,0.00,,---,0.00,VWS V13.01,2013-05-06 04:52:00,
2013-05-06 00:57:00,62.6,29.1,29.99,North,351,0.0,2.7,28,0.00,,---,0.00,VWS V13.01,2013-05-06 04:57:00,
2013-05-06 01:02:00,62.6,29.1,30.02,North,351,2.7,3.1,28,0.00,,---,0.00,VWS V13.01,2013-05-06 05:02:00,
2013-05-06 01:07:00,62.6,29.1,30.02,North,351,0.0,0.0,28,0.00,,---,0.00,VWS V13.01,2013-05-06 05:07:00,
2013-05-06 01:12:00,62.4,29.8,30.02,North,351,0.0,0.0,29,0.00,,---,0.00,VWS V13.01,2013-05-06 05:12:00,
2013-05-06 01:17:00,62.2,29.6,29.99,North,351,0.0,0.0,29,0.00,,---,0.00,VWS V13.01,2013-05-06 05:17:00,
2013-05-06 01:22:00,62.1,29.5,29.99,North,351,0.0,0.0,29,0.00,,---,0.00,VWS V13.01,2013-05-06 05:22:00,
2013-05-06 01:27:00,62.1,30.3,29.99,North,351,0.0,0.0,30,0.00,,---,0.00,VWS V13.01,2013-05-06 05:27:00,
2013-05-06 01:32:00,62.1,30.3,29.99,NW,320,3.6,4.0,30,0.00,,---,0.00,VWS V13.01,2013-05-06 05:32:00,
2013-05-06 01:37:00,61.9,30.1,29.99,NW,318,3.1,3.6,30,0.00,,---,0.00,VWS V13.01,2013-05-06 05:37:00,
2013-05-06 01:42:00,61.9,30.1,29.99,NW,318,3.6,3.6,30,0.00,,---,0.00,VWS V13.01,2013-05-06 05:42:00,
2013-05-06 01:47:00,61.7,30.8,29.99,NW,319,3.6,4.9,31,0.00,,---,0.00,VWS V13.01,2013-05-06 05:47:00,
2013-05-06 01:52:00,61.5,30.6,29.99,NW,319,4.0,4.0,31,0.00,,---,0.00,VWS V13.01,2013-05-06 05:52:00,
2013-05-06 01:57:00,61.3,30.5,29.99,NW,322,3.6,3.6,31,0.00,,---,0.00,VWS V13.01,2013-05-06 05:57:00,
2013-05-06 02:02:00,61.3,29.7,29.99,NW,308,3.1,3.6,30,0.00,,---,0.00,VWS V13.01,2013-05-06 06:02:00,
2013-05-06 02:07:00,61.2,29.5,29.99,NW,308,3.6,4.0,30,0.00,,---,0.00,VWS V13.01,2013-05-06 06:07:00,
2013-05-06 02:12:00,61.2,28.7,29.99,NW,308,2.7,2.7,29,0.00,,---,0.00,VWS V13.01,2013-05-06 06:12:00,
2013-05-06 02:17:00,61.0,28.5,29.99,NW,309,3.6,4.0,29,0.00,,---,0.00,VWS V13.01,2013-05-06 06:17:00,
2013-05-06 02:22:00,60.8,29.2,29.99,NW,309,2.7,4.0,30,0.00,,---,0.00,VWS V13.01,2013-05-06 06:22:00,
2013-05-06 02:27:00,60.8,29.2,29.99,NW,309,3.1,3.6,30,0.00,,---,0.00,VWS V13.01,2013-05-06 06:27:00,
2013-05-06 02:32:00,60.8,29.2,29.99,NNW,339,4.0,6.7,30,0.00,,---,0.00,VWS V13.01,2013-05-06 06:32:00,
2013-05-06 02:37:00,60.8,29.2,29.99,NNW,332,3.6,4.0,30,0.00,,---,0.00,VWS V13.01,2013-05-06 06:37:00,
2013-05-06 02:42:00,60.8,29.2,29.99,NNW,331,0.0,0.0,30,0.00,,---,0.00,VWS V13.01,2013-05-06 06:42:00,
2013-05-06 02:47:00,60.8,29.2,29.99,NNW,332,3.6,3.6,30,0.00,,---,0.00,VWS V13.01,2013-05-06 06:47:00,
2013-05-06 02:52:00,60.6,29.8,29.99,NNW,328,3.6,4.5,31,0.00,,---,0.00,VWS V13.01,2013-05-06 06:52:00,
2013-05-06 02:57:00,60.8,30.0,29.99,NW,324,4.9,5.4,31,0.00,,---,0.00,VWS V13.01,2013-05-06 06:57:00,
2013-05-06 03:03:00,60.8,30.0,29.99,NW,324,4.0,4.0,31,0.00,,---,0.00,VWS V13.01,2013-05-06 07:03:00,
2013-05-06 03:08:00,60.8,30.0,29.99,NW,324,2.7,3.1,31,0.00,,---,0.00,VWS V13.01,2013-05-06 07:08:00,
2013-05-06 03:13:00,60.8,30.0,29.99,NW,323,4.5,4.5,31,0.00,,---,0.00,VWS V13.01,2013-05-06 07:13:00,
2013-05-06 03:18:00,60.8,30.0,29.99,NW,323,4.0,4.5,31,0.00,,---,0.00,VWS V13.01,2013-05-06 07:18:00,
2013-05-06 03:23:00,60.6,30.6,29.99,NW,323,3.6,3.6,32,0.00,,---,0.00,VWS V13.01,2013-05-06 07:23:00,
2013-05-06 03:28:00,60.6,30.6,29.99,NW,324,3.6,4.0,32,0.00,,---,0.00,VWS V13.01,2013-05-06 07:28:00,
2013-05-06 03:33:00,60.6,30.6,29.99,NW,324,0.0,0.0,32,0.00,,---,0.00,VWS V13.01,2013-05-06 07:33:00,
2013-05-06 03:38:00,60.4,31.2,29.99,NW,317,4.0,5.4,33,0.00,,---,0.00,VWS V13.01,2013-05-06 07:38:00,
2013-05-06 03:43:00,60.4,30.5,29.99,NNW,327,3.1,4.9,32,0.00,,---,0.00,VWS V13.01,2013-05-06 07:43:00,
2013-05-06 03:48:00,60.3,30.3,29.99,NNW,329,2.7,3.6,32,0.00,,---,0.00,VWS V13.01,2013-05-06 07:48:00,
2013-05-06 03:53:00,60.1,30.9,29.99,NNW,332,0.0,4.5,33,0.00,,---,0.00,VWS V13.01,2013-05-06 07:53:00,
2013-05-06 03:58:00,60.1,31.6,29.99,North,351,4.5,4.9,34,0.00,,---,0.00,VWS V13.01,2013-05-06 07:58:00,
2013-05-06 04:03:00,60.1,31.6,29.96,North,351,3.6,3.6,34,0.00,,---,0.00,VWS V13.01,2013-05-06 08:03:00,
2013-05-06 04:08:00,59.9,31.5,29.96,NNW,334,4.9,5.8,34,0.00,,---,0.00,VWS V13.01,2013-05-06 08:08:00,
2013-05-06 04:13:00,59.7,31.3,29.96,North,351,4.5,5.8,34,0.00,,---,0.00,VWS V13.01,2013-05-06 08:13:00,
2013-05-06 04:18:00,59.7,31.3,29.96,NNW,342,3.1,4.0,34,0.00,,---,0.00,VWS V13.01,2013-05-06 08:18:00,
2013-05-06 04:23:00,59.5,31.9,29.96,NNW,342,0.0,0.0,35,0.00,,---,0.00,VWS V13.01,2013-05-06 08:23:00,
2013-05-06 04:28:00,59.5,31.9,29.96,NNW,329,3.1,4.0,35,0.00,,---,0.00,VWS V13.01,2013-05-06 08:28:00,
2013-05-06 04:33:00,59.4,31.7,29.96,NW,321,3.1,4.5,35,0.00,,---,0.00,VWS V13.01,2013-05-06 08:33:00,
2013-05-06 04:38:00,59.4,31.7,29.96,NW,321,3.6,3.6,35,0.00,,---,0.00,VWS V13.01,2013-05-06 08:38:00,
2013-05-06 04:43:00,59.4,31.7,29.96,NW,321,2.7,3.6,35,0.00,,---,0.00,VWS V13.01,2013-05-06 08:43:00,
2013-05-06 04:48:00,59.2,31.6,29.96,NW,321,4.0,4.0,35,0.00,,---,0.00,VWS V13.01,2013-05-06 08:48:00,
2013-05-06 04:53:00,59.2,31.6,29.96,NW,322,4.0,4.9,35,0.00,,---,0.00,VWS V13.01,2013-05-06 08:53:00,
2013-05-06 04:58:00,59.2,32.3,29.96,NNW,344,4.0,6.3,36,0.00,,---,0.00,VWS V13.01,2013-05-06 08:58:00,
2013-05-06 05:03:00,59.0,32.1,29.96,NNW,344,3.1,4.5,36,0.00,,---,0.00,VWS V13.01,2013-05-06 09:03:00,
2013-05-06 05:08:00,59.2,32.3,29.96,NNW,344,3.6,3.6,36,0.00,,---,0.00,VWS V13.01,2013-05-06 09:08:00,
2013-05-06 05:13:00,59.0,32.1,29.96,NNW,344,2.7,3.6,36,0.00,,---,0.00,VWS V13.01,2013-05-06 09:13:00,
2013-05-06 05:18:00,59.0,32.1,29.99,NNW,344,3.6,4.9,36,0.00,,---,0.00,VWS V13.01,2013-05-06 09:18:00,
2013-05-06 05:23:00,59.0,32.8,29.99,NNW,344,2.7,3.6,37,0.00,,---,0.00,VWS V13.01,2013-05-06 09:23:00,
2013-05-06 05:28:00,59.2,33.0,29.99,NNW,344,0.0,4.0,37,0.00,,---,0.00,VWS V13.01,2013-05-06 09:28:00,
2013-05-06 05:33:00,59.2,33.0,29.96,NNW,344,3.1,3.1,37,0.00,,---,0.00,VWS V13.01,2013-05-06 09:33:00,
2013-05-06 05:38:00,59.2,33.0,29.96,NNW,344,2.7,4.0,37,0.00,,---,0.00,VWS V13.01,2013-05-06 09:38:00,
2013-05-06 05:43:00,59.0,32.8,29.96,NNW,344,2.7,3.1,37,0.00,,---,0.00,VWS V13.01,2013-05-06 09:43:00,
2013-05-06 05:48:00,58.8,32.6,29.96,NNW,344,0.0,2.7,37,0.00,,---,0.00,VWS V13.01,2013-05-06 09:48:00,
2013-05-06 05:53:00,58.8,33.3,29.96,NNW,344,3.1,3.6,38,0.00,,---,0.00,VWS V13.01,2013-05-06 09:53:00,
2013-05-06 05:58:00,58.6,33.1,29.96,NNW,344,3.1,4.5,38,0.00,,---,0.00,VWS V13.01,2013-05-06 09:58:00,
2013-05-06 06:03:00,58.5,33.0,29.99,NNW,344,3.6,4.0,38,0.00,,---,0.00,VWS V13.01,2013-05-06 10:03:00,
2013-05-06 06:08:00,58.5,33.6,29.99,NNW,343,3.1,3.6,39,0.00,,---,0.00,VWS V13.01,2013-05-06 10:08:00,
2013-05-06 06:13:00,58.6,33.8,29.99,NNW,339,2.7,4.0,39,0.00,,---,0.00,VWS V13.01,2013-05-06 10:13:00,
2013-05-06 06:18:00,58.6,33.1,29.99,NNW,339,2.7,3.6,38,0.00,,---,0.00,VWS V13.01,2013-05-06 10:18:00,
2013-05-06 06:23:00,58.5,33.0,29.99,NNW,339,0.0,0.0,38,0.00,,---,0.00,VWS V13.01,2013-05-06 10:23:00,
2013-05-06 06:28:00,58.3,32.8,29.99,NNW,342,2.7,3.1,38,0.00,,---,0.00,VWS V13.01,2013-05-06 10:28:00,
2013-05-06 06:33:00,58.1,33.3,29.99,NNW,341,0.0,4.0,39,0.00,,---,0.00,VWS V13.01,2013-05-06 10:33:00,
2013-05-06 06:38:00,58.1,33.3,29.99,NNW,338,3.1,4.0,39,0.00,,---,0.00,VWS V13.01,2013-05-06 10:38:00,
2013-05-06 06:43:00,58.1,33.3,29.99,NNW,338,2.7,3.1,39,0.00,,---,0.00,VWS V13.01,2013-05-06 10:43:00,
2013-05-06 06:48:00,58.1,33.9,29.99,NNW,338,4.5,4.9,40,0.00,,---,0.00,VWS V13.01,2013-05-06 10:48:00,
2013-05-06 06:53:00,57.9,33.8,29.99,NNW,338,4.0,4.9,40,0.00,,---,0.00,VWS V13.01,2013-05-06 10:53:00,
2013-05-06 06:58:00,57.9,33.8,29.99,North,351,0.0,4.0,40,0.00,,---,0.00,VWS V13.01,2013-05-06 10:58:00,
2013-05-06 07:03:00,57.9,33.8,29.99,North,351,3.1,3.1,40,0.00,,---,0.00,VWS V13.01,2013-05-06 11:03:00,
2013-05-06 07:08:00,57.9,34.4,29.99,North,351,3.6,4.0,41,0.00,,---,0.00,VWS V13.01,2013-05-06 11:08:00,
2013-05-06 07:13:00,58.1,34.5,29.99,North,351,2.7,3.6,41,0.00,,---,0.00,VWS V13.01,2013-05-06 11:13:00,
2013-05-06 07:18:00,58.1,34.5,29.99,NW,323,3.6,4.0,41,0.00,,---,0.00,VWS V13.01,2013-05-06 11:18:00,
2013-05-06 07:23:00,58.1,34.5,29.99,NW,323,3.1,3.6,41,0.00,,---,0.00,VWS V13.01,2013-05-06 11:23:00,
2013-05-06 07:28:00,58.3,34.7,29.99,NW,323,3.6,4.5,41,0.00,,---,0.00,VWS V13.01,2013-05-06 11:28:00,
2013-05-06 07:33:00,58.3,34.7,29.99,NNW,327,4.9,5.4,41,0.00,,---,0.00,VWS V13.01,2013-05-06 11:33:00,
2013-05-06 07:38:00,58.5,34.9,29.99,NNW,327,3.1,4.0,41,0.00,,---,0.00,VWS V13.01,2013-05-06 11:38:00,
2013-05-06 07:43:00,58.6,35.0,29.99,NNW,327,3.6,4.5,41,0.00,,---,0.00,VWS V13.01,2013-05-06 11:43:00,
2013-05-06 07:48:00,58.8,35.2,29.99,NNW,336,5.8,5.8,41,0.00,,---,0.00,VWS V13.01,2013-05-06 11:48:00,
2013-05-06 07:53:00,59.0,35.3,29.99,NNW,339,3.1,3.6,41,0.00,,---,0.00,VWS V13.01,2013-05-06 11:53:00,
2013-05-06 07:58:00,59.2,35.5,29.99,NW,326,4.0,5.4,41,0.00,,---,0.00,VWS V13.01,2013-05-06 11:58:00,
2013-05-06 08:03:00,59.2,34.9,30.02,North,351,3.1,4.9,40,0.00,,---,0.00,VWS V13.01,2013-05-06 12:03:00,
2013-05-06 08:08:00,59.4,35.7,30.02,North,356,5.4,6.3,41,0.00,,---,0.00,VWS V13.01,2013-05-06 12:08:00,
2013-05-06 08:13:00,59.7,35.4,30.02,North,351,3.6,5.8,40,0.00,,---,0.00,VWS V13.01,2013-05-06 12:13:00,
2013-05-06 08:18:00,59.9,35.5,30.02,North,356,3.6,4.0,40,0.00,,---,0.00,VWS V13.01,2013-05-06 12:18:00,
2013-05-06 08:23:00,60.1,35.7,30.02,North,356,3.1,4.0,40,0.00,,---,0.00,VWS V13.01,2013-05-06 12:23:00,
2013-05-06 08:28:00,60.4,36.0,30.02,NW,318,4.9,4.9,40,0.00,,---,0.00,VWS V13.01,2013-05-06 12:28:00,
2013-05-06 08:33:00,60.6,36.2,30.02,NW,320,3.6,4.0,40,0.00,,---,0.00,VWS V13.01,2013-05-06 12:33:00,
2013-05-06 08:38:00,60.8,36.3,30.02,North,351,4.0,4.9,40,0.00,,---,0.00,VWS V13.01,2013-05-06 12:38:00,
2013-05-06 08:43:00,61.0,35.9,30.02,North,356,2.7,4.9,39,0.00,,---,0.00,VWS V13.01,2013-05-06 12:43:00,
2013-05-06 08:48:00,61.3,36.2,30.02,NNW,339,5.4,5.4,39,0.00,,---,0.00,VWS V13.01,2013-05-06 12:48:00,
2013-05-06 08:53:00,61.5,36.3,30.02,North,351,3.1,4.9,39,0.00,,---,0.00,VWS V13.01,2013-05-06 12:53:00,
2013-05-06 08:58:00,61.9,36.0,30.02,North,351,3.1,4.0,38,0.00,,---,0.00,VWS V13.01,2013-05-06 12:58:00,
2013-05-06 09:03:00,62.1,36.2,30.02,North,351,4.0,4.9,38,0.00,,---,0.00,VWS V13.01,2013-05-06 13:03:00,
2013-05-06 09:08:00,62.4,36.5,30.02,North,351,4.5,4.5,38,0.00,,---,0.00,VWS V13.01,2013-05-06 13:08:00,
2013-05-06 09:13:00,62.8,36.8,30.02,North,351,3.1,4.5,38,0.00,,---,0.00,VWS V13.01,2013-05-06 13:13:00,
2013-05-06 09:18:00,63.1,37.1,30.02,NNW,341,6.3,6.7,38,0.00,,---,0.00,VWS V13.01,2013-05-06 13:18:00,
2013-05-06 09:23:00,63.7,35.5,30.02,NW,325,4.0,5.4,35,0.00,,---,0.00,VWS V13.01,2013-05-06 13:23:00,
2013-05-06 09:28:00,64.2,36.0,30.02,North,351,3.1,5.8,35,0.00,,---,0.00,VWS V13.01,2013-05-06 13:28:00,
2013-05-06 09:33:00,64.6,35.6,30.02,NW,306,4.0,4.5,34,0.00,,---,0.00,VWS V13.01,2013-05-06 13:33:00,
2013-05-06 09:38:00,65.1,36.8,30.02,North,4,4.0,5.4,35,0.00,,---,0.00,VWS V13.01,2013-05-06 13:38:00,
2013-05-06 09:43:00,65.5,36.4,30.02,NNW,334,2.7,5.4,34,0.00,,---,0.00,VWS V13.01,2013-05-06 13:43:00,
2013-05-06 09:48:00,65.7,35.8,30.02,North,5,3.6,5.8,33,0.00,,---,0.00,VWS V13.01,2013-05-06 13:48:00,
2013-05-06 09:53:00,65.8,36.0,30.02,NNW,334,4.5,5.8,33,0.00,,---,0.00,VWS V13.01,2013-05-06 13:53:00,
2013-05-06 09:58:00,66.2,36.3,30.02,NW,304,4.5,6.3,33,0.00,,---,0.00,VWS V13.01,2013-05-06 13:58:00,
2013-05-06 10:03:00,66.4,36.4,30.02,North,351,5.4,5.8,33,0.00,,---,0.00,VWS V13.01,2013-05-06 14:03:00,
2013-05-06 10:08:00,66.7,36.8,30.02,East,98,4.5,4.5,33,0.00,,---,0.00,VWS V13.01,2013-05-06 14:08:00,
2013-05-06 10:13:00,66.9,36.9,30.02,North,2,4.0,5.4,33,0.00,,---,0.00,VWS V13.01,2013-05-06 14:13:00,
2013-05-06 10:18:00,67.3,36.4,30.02,North,351,3.6,6.7,32,0.00,,---,0.00,VWS V13.01,2013-05-06 14:18:00,
2013-05-06 10:23:00,67.6,36.8,30.02,NW,323,4.5,6.3,32,0.00,,---,0.00,VWS V13.01,2013-05-06 14:23:00,
2013-05-06 10:28:00,68.2,37.2,30.02,North,351,3.6,5.8,32,0.00,,---,0.00,VWS V13.01,2013-05-06 14:28:00,
2013-05-06 10:33:00,68.5,37.5,30.02,North,351,3.6,4.0,32,0.00,,---,0.00,VWS V13.01,2013-05-06 14:33:00,
2013-05-06 10:38:00,68.7,36.1,30.02,NW,325,4.9,5.4,30,0.00,,---,0.00,VWS V13.01,2013-05-06 14:38:00,
2013-05-06 10:43:00,69.1,36.4,30.02,NW,323,5.4,6.3,30,0.00,,---,0.00,VWS V13.01,2013-05-06 14:43:00,
2013-05-06 10:48:00,69.4,35.8,30.02,North,10,6.7,7.8,29,0.00,,---,0.00,VWS V13.01,2013-05-06 14:48:00,
2013-05-06 10:53:00,69.8,36.1,30.02,North,9,4.9,6.7,29,0.00,,---,0.00,VWS V13.01,2013-05-06 14:53:00,
2013-05-06 10:58:00,70.3,36.6,30.02,NNE,16,4.9,5.8,29,0.00,,---,0.00,VWS V13.01,2013-05-06 14:58:00,
2013-05-06 11:03:00,70.5,35.9,30.02,North,356,6.7,7.8,28,0.00,,---,0.00,VWS V13.01,2013-05-06 15:03:00,
2013-05-06 11:08:00,70.9,35.3,30.02,North,351,4.9,4.9,27,0.00,,---,0.00,VWS V13.01,2013-05-06 15:08:00,
2013-05-06 11:13:00,71.6,35.9,30.02,WNW,296,5.4,5.4,27,0.00,,---,0.00,VWS V13.01,2013-05-06 15:13:00,
2013-05-06 11:18:00,71.6,34.9,30.02,North,5,6.3,6.9,26,0.00,,---,0.00,VWS V13.01,2013-05-06 15:18:00,
2013-05-06 11:23:00,72.1,36.3,30.02,NNW,347,5.4,6.9,27,0.00,,---,0.00,VWS V13.01,2013-05-06 15:23:00,
2013-05-06 11:28:00,72.5,35.7,30.02,NNE,14,4.0,6.3,26,0.00,,---,0.00,VWS V13.01,2013-05-06 15:28:00,
2013-05-06 11:33:00,72.7,33.8,30.02,NNW,347,5.4,6.9,24,0.00,,---,0.00,VWS V13.01,2013-05-06 15:33:00,
2013-05-06 11:38:00,73.0,34.1,30.02,NW,319,4.0,4.9,24,0.00,,---,0.00,VWS V13.01,2013-05-06 15:38:00,
2013-05-06 11:43:00,73.0,34.1,30.02,NW,325,3.1,4.9,24,0.00,,---,0.00,VWS V13.01,2013-05-06 15:43:00,
2013-05-06 11:48:00,73.4,34.5,30.02,North,2,4.5,7.4,24,0.00,,---,0.00,VWS V13.01,2013-05-06 15:48:00,
2013-05-06 11:53:00,73.9,34.9,30.02,North,9,5.4,6.3,24,0.00,,---,0.00,VWS V13.01,2013-05-06 15:53:00,
2013-05-06 11:58:00,74.7,33.3,30.02,NNW,344,5.4,5.4,22,0.00,,---,0.00,VWS V13.01,2013-05-06 15:58:00,
2013-05-06 12:03:00,75.7,34.2,30.02,NW,318,5.4,6.9,22,0.00,,---,0.00,VWS V13.01,2013-05-06 16:03:00,
2013-05-06 12:08:00,76.5,32.5,30.02,North,2,4.5,6.3,20,0.00,,---,0.00,VWS V13.01,2013-05-06 16:08:00,
2013-05-06 12:13:00,77.4,33.2,30.02,North,351,4.0,6.9,20,0.00,,---,0.00,VWS V13.01,2013-05-06 16:13:00,
2013-05-06 12:18:00,78.3,33.9,30.02,NNE,18,6.7,8.7,20,0.00,,---,0.00,VWS V13.01,2013-05-06 16:18:00,
2013-05-06 12:23:00,78.8,34.4,30.02,North,356,6.3,6.3,20,0.00,,---,0.00,VWS V13.01,2013-05-06 16:23:00,
2013-05-06 12:28:00,78.8,34.4,30.02,NW,316,5.8,7.8,20,0.00,,---,0.00,VWS V13.01,2013-05-06 16:28:00,
2013-05-06 12:33:00,78.3,29.9,30.02,NW,325,5.4,9.2,17,0.00,,---,0.00,VWS V13.01,2013-05-06 16:33:00,
2013-05-06 12:38:00,78.6,30.2,30.02,NNW,328,4.9,8.7,17,0.00,,---,0.00,VWS V13.01,2013-05-06 16:38:00,
2013-05-06 12:43:00,79.5,35.0,30.02,North,3,11.0,11.0,20,0.00,,---,0.00,VWS V13.01,2013-05-06 16:43:00,
2013-05-06 12:48:00,79.9,34.0,29.99,NW,309,5.4,6.3,19,0.00,,---,0.00,VWS V13.01,2013-05-06 16:48:00,
2013-05-06 12:53:00,80.4,31.7,29.99,NW,312,4.5,4.5,17,0.00,,---,0.00,VWS V13.01,2013-05-06 16:53:00,
2013-05-06 12:58:00,80.4,31.7,29.99,NNE,13,6.3,6.3,17,0.00,,---,0.00,VWS V13.01,2013-05-06 16:58:00,
2013-05-06 13:03:00,81.0,32.1,29.99,NW,313,6.3,8.3,17,0.00,,---,0.00,VWS V13.01,2013-05-06 17:03:00,
2013-05-06 13:08:00,80.4,31.7,29.99,NNW,332,6.3,7.8,17,0.00,,---,0.00,VWS V13.01,2013-05-06 17:08:00,
2013-05-06 13:13:00,80.8,32.0,29.99,NNW,343,5.8,8.3,17,0.00,,---,0.00,VWS V13.01,2013-05-06 17:13:00,
2013-05-06 13:18:00,81.5,31.0,29.99,North,351,5.8,6.7,16,0.00,,---,0.00,VWS V13.01,2013-05-06 17:18:00,
2013-05-06 13:23:00,81.9,31.3,29.99,NNW,335,8.3,9.6,16,0.00,,---,0.00,VWS V13.01,2013-05-06 17:23:00,
2013-05-06 13:28:00,81.7,31.2,29.99,NW,317,3.6,4.5,16,0.00,,---,0.00,VWS V13.01,2013-05-06 17:28:00,
2013-05-06 13:33:00,82.2,31.6,29.99,North,356,4.9,4.9,16,0.00,,---,0.00,VWS V13.01,2013-05-06 17:33:00,
2013-05-06 13:38:00,82.8,32.0,29.99,North,351,6.9,6.9,16,0.00,,---,0.00,VWS V13.01,2013-05-06 17:38:00,
2013-05-06 13:43:00,82.9,32.2,29.99,NW,321,5.8,8.7,16,0.00,,---,0.00,VWS V13.01,2013-05-06 17:43:00,
2013-05-06 13:48:00,82.6,31.9,29.99,North,356,4.9,5.8,16,0.00,,---,0.00,VWS V13.01,2013-05-06 17:48:00,
2013-05-06 13:53:00,83.3,32.5,29.99,NNW,343,3.6,4.5,16,0.00,,---,0.00,VWS V13.01,2013-05-06 17:53:00,
2013-05-06 13:58:00,83.8,27.8,29.99,NE,55,4.0,6.9,13,0.00,,---,0.00,VWS V13.01,2013-05-06 17:58:00,
2013-05-06 14:03:00,84.0,33.0,29.99,North,351,7.4,7.8,16,0.00,,---,0.00,VWS V13.01,2013-05-06 18:03:00,
2013-05-06 14:08:00,84.0,33.0,29.99,NNW,342,6.3,7.8,16,0.00,,---,0.00,VWS V13.01,2013-05-06 18:08:00,
2013-05-06 14:13:00,84.7,33.6,29.99,NNW,328,6.3,10.5,16,0.00,,---,0.00,VWS V13.01,2013-05-06 18:13:00,
2013-05-06 14:18:00,85.1,33.9,29.99,ENE,59,5.8,6.7,16,0.00,,---,0.00,VWS V13.01,2013-05-06 18:18:00,
2013-05-06 14:23:00,85.8,29.4,29.99,ENE,60,4.9,4.9,13,0.00,,---,0.00,VWS V13.01,2013-05-06 18:23:00,
2013-05-06 14:28:00,85.3,34.1,29.99,North,6,4.0,7.4,16,0.00,,---,0.00,VWS V13.01,2013-05-06 18:28:00,
2013-05-06 14:33:00,85.1,33.9,29.99,NNW,332,8.7,8.7,16,0.00,,---,0.00,VWS V13.01,2013-05-06 18:33:00,
2013-05-06 14:38:00,85.1,33.9,29.99,WNW,298,4.9,4.9,16,0.00,,---,0.00,VWS V13.01,2013-05-06 18:38:00,
2013-05-06 14:43:00,85.6,34.3,29.99,NW,326,4.0,4.5,16,0.00,,---,0.00,VWS V13.01,2013-05-06 18:43:00,
2013-05-06 14:48:00,86.7,35.2,29.99,North,10,6.7,7.8,16,0.00,,---,0.00,VWS V13.01,2013-05-06 18:48:00,
2013-05-06 14:53:00,87.1,33.9,29.99,NW,325,6.7,7.8,15,0.00,,---,0.00,VWS V13.01,2013-05-06 18:53:00,
2013-05-06 14:58:00,86.9,33.7,29.99,NNW,327,3.6,9.2,15,0.00,,---,0.00,VWS V13.01,2013-05-06 18:58:00,
2013-05-06 15:03:00,87.6,34.3,29.96,WNW,293,4.9,8.3,15,0.00,,---,0.00,VWS V13.01,2013-05-06 19:03:00,
2013-05-06 15:08:00,88.5,35.0,29.96,NE,39,7.4,7.4,15,0.00,,---,0.00,VWS V13.01,2013-05-06 19:08:00,
2013-05-06 15:13:00,88.2,31.2,29.96,North,351,8.7,8.7,13,0.00,,---,0.00,VWS V13.01,2013-05-06 19:13:00,
2013-05-06 15:18:00,88.5,35.0,29.96,North,6,6.3,6.3,15,0.00,,---,0.00,VWS V13.01,2013-05-06 19:18:00,
2013-05-06 15:23:00,89.2,35.6,29.96,North,8,5.8,11.2,15,0.00,,---,0.00,VWS V13.01,2013-05-06 19:23:00,
2013-05-06 15:28:00,90.0,36.2,29.96,North,356,4.0,4.9,15,0.00,,---,0.00,VWS V13.01,2013-05-06 19:28:00,
2013-05-06 15:33:00,89.8,36.0,29.96,North,3,5.8,6.3,15,0.00,,---,0.00,VWS V13.01,2013-05-06 19:33:00,
2013-05-06 15:38:00,89.2,35.6,29.96,NNE,24,9.6,9.6,15,0.00,,---,0.00,VWS V13.01,2013-05-06 19:38:00,
2013-05-06 15:43:00,89.1,35.5,29.96,NW,319,4.9,9.6,15,0.00,,---,0.00,VWS V13.01,2013-05-06 19:43:00,
2013-05-06 15:48:00,88.9,35.3,29.96,WNW,289,4.0,4.9,15,0.00,,---,0.00,VWS V13.01,2013-05-06 19:48:00,
2013-05-06 15:54:00,88.7,35.2,29.96,North,351,3.6,4.5,15,0.00,,---,0.00,VWS V13.01,2013-05-06 19:54:00,
2013-05-06 15:59:00,89.4,35.7,29.96,NNW,346,5.8,9.2,15,0.00,,---,0.00,VWS V13.01,2013-05-06 19:59:00,
2013-05-06 16:04:00,89.4,35.7,29.96,NNE,13,6.3,6.3,15,0.00,,---,0.00,VWS V13.01,2013-05-06 20:04:00,
2013-05-06 16:09:00,89.8,36.0,29.96,NNW,338,4.0,8.3,15,0.00,,---,0.00,VWS V13.01,2013-05-06 20:09:00,
2013-05-06 16:14:00,90.3,36.5,29.96,North,356,6.9,7.4,15,0.00,,---,0.00,VWS V13.01,2013-05-06 20:14:00,
2013-05-06 16:19:00,90.9,35.1,29.96,NNE,29,3.1,6.3,14,0.00,,---,0.00,VWS V13.01,2013-05-06 20:19:00,
2013-05-06 16:24:00,91.6,35.7,29.96,NE,55,3.1,6.7,14,0.00,,---,0.00,VWS V13.01,2013-05-06 20:24:00,
2013-05-06 16:29:00,90.1,36.3,29.96,North,3,4.9,5.8,15,0.00,,---,0.00,VWS V13.01,2013-05-06 20:29:00,
2013-05-06 16:34:00,90.0,30.6,29.93,NE,47,4.0,4.9,12,0.00,,---,0.00,VWS V13.01,2013-05-06 20:34:00,
2013-05-06 16:39:00,88.9,35.3,29.93,ENE,76,3.6,3.6,15,0.00,,---,0.00,VWS V13.01,2013-05-06 20:39:00,
2013-05-06 16:44:00,88.2,34.7,29.93,North,351,5.4,5.4,15,0.00,,---,0.00,VWS V13.01,2013-05-06 20:44:00,
2013-05-06 16:49:00,87.4,34.2,29.93,ENE,63,6.3,6.3,15,0.00,,---,0.00,VWS V13.01,2013-05-06 20:49:00,
2013-05-06 16:54:00,85.8,34.5,29.93,ENE,67,5.4,6.3,16,0.00,,---,0.00,VWS V13.01,2013-05-06 20:54:00,
2013-05-06 16:59:00,84.0,33.0,29.93,East,101,4.5,5.4,16,0.00,,---,0.00,VWS V13.01,2013-05-06 20:59:00,
2013-05-06 17:04:00,83.5,32.6,29.93,East,93,2.7,3.6,16,0.00,,---,0.00,VWS V13.01,2013-05-06 21:04:00,
2013-05-06 17:09:00,84.4,33.3,29.93,North,10,4.5,4.9,16,0.00,,---,0.00,VWS V13.01,2013-05-06 21:09:00,
2013-05-06 17:14:00,84.7,33.6,29.93,ESE,103,6.3,6.7,16,0.00,,---,0.00,VWS V13.01,2013-05-06 21:14:00,
2013-05-06 17:19:00,85.3,34.1,29.93,ESE,110,4.5,5.4,16,0.00,,---,0.00,VWS V13.01,2013-05-06 21:19:00,
2013-05-06 17:24:00,85.8,34.5,29.93,North,5,5.4,5.4,16,0.00,,---,0.00,VWS V13.01,2013-05-06 21:24:00,
2013-05-06 17:29:00,87.3,34.0,29.93,ENE,65,0.0,0.0,15,0.00,,---,0.00,VWS V13.01,2013-05-06 21:29:00,
2013-05-06 17:34:00,88.2,34.7,29.93,ENE,74,5.8,7.4,15,0.00,,---,0.00,VWS V13.01,2013-05-06 21:34:00,
2013-05-06 17:39:00,88.3,34.9,29.93,NNW,337,5.8,6.7,15,0.00,,---,0.00,VWS V13.01,2013-05-06 21:39:00,
2013-05-06 17:44:00,87.1,33.9,29.93,North,2,5.4,6.3,15,0.00,,---,0.00,VWS V13.01,2013-05-06 21:44:00,
2013-05-06 17:49:00,85.6,34.3,29.93,NNW,337,5.8,6.7,16,0.00,,---,0.00,VWS V13.01,2013-05-06 21:49:00,
2013-05-06 17:54:00,84.2,33.2,29.93,North,351,6.7,7.4,16,0.00,,---,0.00,VWS V13.01,2013-05-06 21:54:00,
2013-05-06 17:59:00,82.9,32.2,29.93,North,356,3.6,5.8,16,0.00,,---,0.00,VWS V13.01,2013-05-06 21:59:00,
2013-05-06 18:04:00,83.1,32.3,29.93,NNE,31,6.7,6.9,16,0.00,,---,0.00,VWS V13.01,2013-05-06 22:04:00,
2013-05-06 18:09:00,83.1,32.3,29.93,NNE,14,2.7,3.1,16,0.00,,---,0.00,VWS V13.01,2013-05-06 22:09:00,
2013-05-06 18:14:00,82.0,31.5,29.93,ENE,75,3.6,3.6,16,0.00,,---,0.00,VWS V13.01,2013-05-06 22:14:00,
2013-05-06 18:19:00,81.0,32.1,29.93,ENE,78,3.6,6.7,17,0.00,,---,0.00,VWS V13.01,2013-05-06 22:19:00,
2013-05-06 18:24:00,79.5,30.9,29.93,East,94,5.4,6.3,17,0.00,,---,0.00,VWS V13.01,2013-05-06 22:24:00,
2013-05-06 18:29:00,78.4,34.1,29.93,ESE,109,4.5,5.4,20,0.00,,---,0.00,VWS V13.01,2013-05-06 22:29:00,
2013-05-06 18:34:00,77.4,33.2,29.93,East,89,5.8,5.8,20,0.00,,---,0.00,VWS V13.01,2013-05-06 22:34:00,
2013-05-06 18:39:00,76.6,32.6,29.93,East,90,3.6,4.5,20,0.00,,---,0.00,VWS V13.01,2013-05-06 22:39:00,
2013-05-06 18:44:00,76.5,32.5,29.93,ESE,105,3.6,3.6,20,0.00,,---,0.00,VWS V13.01,2013-05-06 22:44:00,
2013-05-06 18:49:00,77.9,33.6,29.93,ESE,108,4.0,4.0,20,0.00,,---,0.00,VWS V13.01,2013-05-06 22:49:00,
2013-05-06 18:54:00,79.9,35.3,29.93,East,92,4.0,4.5,20,0.00,,---,0.00,VWS V13.01,2013-05-06 22:54:00,
2013-05-06 18:59:00,81.3,35.2,29.93,ESE,111,4.5,4.5,19,0.00,,---,0.00,VWS V13.01,2013-05-06 22:59:00,
2013-05-06 19:04:00,82.6,36.2,29.93,East,92,4.5,4.9,19,0.00,,---,0.00,VWS V13.01,2013-05-06 23:04:00,
2013-05-06 19:09:00,83.8,35.8,29.93,ENE,78,3.1,4.0,18,0.00,,---,0.00,VWS V13.01,2013-05-06 23:09:00,
2013-05-06 19:14:00,83.5,35.6,29.93,East,90,5.8,7.8,18,0.00,,---,0.00,VWS V13.01,2013-05-06 23:14:00,
2013-05-06 19:19:00,82.4,36.0,29.93,ENE,78,6.7,6.9,19,0.00,,---,0.00,VWS V13.01,2013-05-06 23:19:00,
2013-05-06 19:24:00,80.8,34.7,29.93,NE,43,3.1,6.3,19,0.00,,---,0.00,VWS V13.01,2013-05-06 23:24:00,
2013-05-06 19:29:00,79.9,34.0,29.93,ENE,71,4.5,4.9,19,0.00,,---,0.00,VWS V13.01,2013-05-06 23:29:00,
2013-05-06 19:34:00,78.8,34.4,29.93,NE,48,4.0,7.8,20,0.00,,---,0.00,VWS V13.01,2013-05-06 23:34:00,
2013-05-06 19:39:00,77.7,33.5,29.93,SE,124,3.6,5.4,20,0.00,,---,0.00,VWS V13.01,2013-05-06 23:39:00,
2013-05-06 19:44:00,76.5,34.8,29.96,South,184,4.0,4.5,22,0.00,,---,0.00,VWS V13.01,2013-05-06 23:44:00,
2013-05-06 19:49:00,75.4,36.1,29.96,SSE,166,0.0,3.1,24,0.00,,---,0.00,VWS V13.01,2013-05-06 23:49:00,
2013-05-06 19:54:00,74.8,34.6,29.96,SE,130,5.4,6.3,23,0.00,,---,0.00,VWS V13.01,2013-05-06 23:54:00,
2013-05-06 19:59:00,74.5,33.2,29.96,ESE,114,3.6,4.5,22,0.00,,---,0.00,VWS V13.01,2013-05-06 23:59:00,
2013-05-06 20:04:00,74.3,33.0,29.96,SE,126,0.0,0.0,22,0.00,,---,0.00,VWS V13.01,2013-05-07 00:04:00,
2013-05-06 20:09:00,74.3,34.1,29.96,East,95,0.0,0.0,23,0.00,,---,0.00,VWS V13.01,2013-05-07 00:09:00,
2013-05-06 20:14:00,73.9,34.9,29.96,East,95,0.0,0.0,24,0.00,,---,0.00,VWS V13.01,2013-05-07 00:14:00,
2013-05-06 20:20:00,73.8,35.8,29.96,East,96,2.7,3.6,25,0.00,,---,0.00,VWS V13.01,2013-05-07 00:20:00,
2013-05-06 20:25:00,73.6,36.6,29.96,East,96,3.1,3.6,26,0.00,,---,0.00,VWS V13.01,2013-05-07 00:25:00,
2013-05-06 20:30:00,73.4,37.4,29.96,East,96,3.1,3.6,27,0.00,,---,0.00,VWS V13.01,2013-05-07 00:30:00,
2013-05-06 20:35:00,73.2,38.2,29.96,East,96,4.0,4.0,28,0.00,,---,0.00,VWS V13.01,2013-05-07 00:35:00,
2013-05-06 20:40:00,72.7,37.7,29.96,ENE,73,4.0,6.3,28,0.00,,---,0.00,VWS V13.01,2013-05-07 00:40:00,
2013-05-06 20:45:00,72.5,38.5,29.96,East,84,3.6,4.5,29,0.00,,---,0.00,VWS V13.01,2013-05-07 00:45:00,
2013-05-06 20:50:00,72.1,39.0,29.96,ENE,58,4.9,5.8,30,0.00,,---,0.00,VWS V13.01,2013-05-07 00:50:00,
2013-05-06 20:55:00,72.0,39.7,29.96,ENE,78,4.0,4.5,31,0.00,,---,0.00,VWS V13.01,2013-05-07 00:55:00,
2013-05-06 21:00:00,71.6,39.4,29.96,East,84,0.0,4.0,31,0.00,,---,0.00,VWS V13.01,2013-05-07 01:00:00,
2013-05-06 21:05:00,71.4,39.2,29.96,East,84,3.6,4.9,31,0.00,,---,0.00,VWS V13.01,2013-05-07 01:05:00,
2013-05-06 21:10:00,71.2,39.1,29.96,East,83,3.6,3.6,31,0.00,,---,0.00,VWS V13.01,2013-05-07 01:10:00,
2013-05-06 21:15:00,71.1,39.7,29.99,East,83,0.0,0.0,32,0.00,,---,0.00,VWS V13.01,2013-05-07 01:15:00,
2013-05-06 21:20:00,70.9,39.6,29.99,East,83,0.0,0.0,32,0.00,,---,0.00,VWS V13.01,2013-05-07 01:20:00,
2013-05-06 21:25:00,70.9,39.6,29.99,East,83,0.0,0.0,32,0.00,,---,0.00,VWS V13.01,2013-05-07 01:25:00,
2013-05-06 21:30:00,70.7,39.4,29.99,East,83,0.0,0.0,32,0.00,,---,0.00,VWS V13.01,2013-05-07 01:30:00,
2013-05-06 21:35:00,70.5,39.3,29.99,East,83,0.0,0.0,32,0.00,,---,0.00,VWS V13.01,2013-05-07 01:35:00,
2013-05-06 21:40:00,70.3,39.1,29.99,East,83,0.0,0.0,32,0.00,,---,0.00,VWS V13.01,2013-05-07 01:40:00,
2013-05-06 21:45:00,70.2,39.7,29.99,East,83,0.0,0.0,33,0.00,,---,0.00,VWS V13.01,2013-05-07 01:45:00,
2013-05-06 21:50:00,70.2,39.7,29.99,East,83,0.0,0.0,33,0.00,,---,0.00,VWS V13.01,2013-05-07 01:50:00,
2013-05-06 21:55:00,70.0,39.6,29.99,East,83,0.0,0.0,33,0.00,,---,0.00,VWS V13.01,2013-05-07 01:55:00,
2013-05-06 22:00:00,70.0,39.6,29.99,East,83,0.0,0.0,33,0.00,,---,0.00,VWS V13.01,2013-05-07 02:00:00,
2013-05-06 22:05:00,69.8,40.2,29.99,East,83,0.0,0.0,34,0.00,,---,0.00,VWS V13.01,2013-05-07 02:05:00,
2013-05-06 22:10:00,69.8,40.2,29.99,East,83,0.0,0.0,34,0.00,,---,0.00,VWS V13.01,2013-05-07 02:10:00,
2013-05-06 22:15:00,69.6,40.8,29.99,East,83,0.0,0.0,35,0.00,,---,0.00,VWS V13.01,2013-05-07 02:15:00,
2013-05-06 22:20:00,69.6,40.8,29.99,East,83,0.0,0.0,35,0.00,,---,0.00,VWS V13.01,2013-05-07 02:20:00,
2013-05-06 22:25:00,69.4,41.3,29.99,East,83,0.0,0.0,36,0.00,,---,0.00,VWS V13.01,2013-05-07 02:25:00,
2013-05-06 22:30:00,69.3,41.2,29.99,East,83,0.0,0.0,36,0.00,,---,0.00,VWS V13.01,2013-05-07 02:30:00,
2013-05-06 22:35:00,68.9,40.9,29.99,East,83,0.0,0.0,36,0.00,,---,0.00,VWS V13.01,2013-05-07 02:35:00,
2013-05-06 22:40:00,68.5,41.3,29.99,East,83,0.0,0.0,37,0.00,,---,0.00,VWS V13.01,2013-05-07 02:40:00,
2013-05-06 22:45:00,68.5,41.3,29.99,East,83,0.0,0.0,37,0.00,,---,0.00,VWS V13.01,2013-05-07 02:45:00,
2013-05-06 22:50:00,68.5,41.3,29.99,East,83,0.0,0.0,37,0.00,,---,0.00,VWS V13.01,2013-05-07 02:50:00,
2013-05-06 22:55:00,68.0,40.1,29.99,East,83,0.0,0.0,36,0.00,,---,0.00,VWS V13.01,2013-05-07 02:55:00,
2013-05-06 23:00:00,67.3,39.4,29.99,East,83,0.0,0.0,36,0.00,,---,0.00,VWS V13.01,2013-05-07 03:00:00,
2013-05-06 23:05:00,66.6,39.5,29.99,East,83,0.0,0.0,37,0.00,,---,0.00,VWS V13.01,2013-05-07 03:05:00,
2013-05-06 23:10:00,66.0,39.7,29.99,East,83,0.0,0.0,38,0.00,,---,0.00,VWS V13.01,2013-05-07 03:10:00,
2013-05-06 23:15:00,65.5,39.9,29.99,East,83,0.0,0.0,39,0.00,,---,0.00,VWS V13.01,2013-05-07 03:15:00,
2013-05-06 23:20:00,65.1,40.9,29.99,East,83,0.0,0.0,41,0.00,,---,0.00,VWS V13.01,2013-05-07 03:20:00,
2013-05-06 23:25:00,65.1,42.1,29.99,ENE,77,3.6,3.6,43,0.00,,---,0.00,VWS V13.01,2013-05-07 03:25:00,
2013-05-06 23:30:00,65.3,41.6,29.99,North,6,3.6,3.6,42,0.00,,---,0.00,VWS V13.01,2013-05-07 03:30:00,
2013-05-06 23:35:00,65.5,41.8,29.99,North,2,2.7,3.6,42,0.00,,---,0.00,VWS V13.01,2013-05-07 03:35:00,
2013-05-06 23:40:00,65.7,42.0,29.99,North,2,0.0,3.1,42,0.00,,---,0.00,VWS V13.01,2013-05-07 03:40:00,
2013-05-06 23:45:00,65.8,42.1,29.99,North,2,0.0,0.0,42,0.00,,---,0.00,VWS V13.01,2013-05-07 03:45:00,
2013-05-06 23:50:00,65.8,42.1,29.99,North,2,0.0,0.0,42,0.00,,---,0.00,VWS V13.01,2013-05-07 03:50:00,
2013-05-06 23:55:00,65.8,41.5,29.99,North,2,0.0,0.0,41,0.00,,---,0.00,VWS V13.01,2013-05-07 03:55:00,